User: anonymous   Login
Location: Helsinki
(60.1699°N, 24.9384°E)
Time: 22:10:56
(UTC+03:00)
Language:

A-11 Canister half - Orbit

View from above orbital plane
View from above orbital plane
View from above satellite
View from above satellite

Ground track
Ground track

The orbit data is extracted from the following two-line orbital elements,

1 00053U 60009E   22275.15113277 -.00000059  00000-0  25845-3 0  9990
2 00053  47.2755 198.6910 0100196  32.9249 327.7730 12.17280364770489
Epoch (UTC): 02 October 2022 03:37:37
Eccentricity: 0.0100196
inclination: 47.2755°
perigee height: 1524 km
apogee height: 1684 km
right ascension of ascending node: 198.6910°
argument of perigee: 32.9249°
revolutions per day: 12.17280364
mean anomaly at epoch: 327.7730°
orbit number at epoch: 77048

The dashed part of the orbit path shows where the satellite is in the earth's shadow,  

DLR